FW6583 Weather Reports


time (UTC)temp
F
wind
direction
speed
knots
gust
knots
rain 1hr
in
rain 24hr
in
rain mn
in
humidity
%
barometer
mb
20260903212025 84 0 0.0 0.9 0.00 0.00 0.00 83 1018.1
20260903211615 84 0 0.0 0.9 0.00 0.00 0.00 83 1018.3
20260903211028 83 110 0.0 0.9 0.00 0.00 0.00 84 1018.4
20260903210526 83 109 0.0 0.9 0.00 0.00 0.00 84 1018.4
20260903210049 83 103 0.9 0.9 0.00 0.00 0.00 83 1018.6
20260903205525 83 99 0.0 0.9 0.00 0.00 0.00 83 1018.6
20260903205026 83 0 0.0 0.9 0.00 0.00 0.00 83 1018.9
20260903204556 83 0 0.0 1.7 0.00 0.00 0.00 82 1018.9
20260903204023 83 0 0.9 1.7 0.00 0.00 0.00 81 1018.7
20260903203526 84 108 0.9 0.9 0.00 0.00 0.00 80 1018.7
20260903203054 85 124 0.0 0.9 0.00 0.00 0.00 79 1018.9
20260903202525 85 101 0.0 0.9 0.00 0.00 0.00 79 1019.1
20260903202026 85 0 0.0 0.9 0.00 0.00 0.00 79 1019.1
20260903201549 85 0 0.0 1.7 0.00 0.00 0.00 79 1019.0
20260903201025 86 125 0.0 1.7 0.00 0.00 0.00 78 1018.9
20260903200526 87 116 0.9 1.7 0.00 0.00 0.00 76 1019.3
20260903200046 88 0 0.0 0.9 0.00 0.00 0.00 73 1019.5
20260903195524 88 224 0.0 0.9 0.00 0.00 0.00 74 1019.5
20260903195027 88 0 0.0 0.9 0.00 0.00 0.00 75 1019.7
20260903194547 87 0 0.0 1.7 0.00 0.00 0.00 75 1019.6
20260903194028 87 0 0.0 1.7 0.00 0.00 0.00 74 1019.6
20260903193525 88 115 0.0 1.7 0.00 0.00 0.00 74 1019.6
20260903193054 88 114 0.0 1.7 0.00 0.00 0.00 73 1019.6
20260903192535 89 47 0.0 1.7 0.00 0.00 0.00 71 1019.8
20260903192026 89 23 0.9 1.7 0.00 0.00 0.00 70 1019.9
20260903191549 90 255 0.9 1.7 0.00 0.00 0.00 70 1020.1
20260903191025 90 29 0.0 1.7 0.00 0.00 0.00 70 1020.0
20260903190528 90 58 0.0 1.7 0.00 0.00 0.00 71 1020.2
20260903190047 89 214 0.0 1.7 0.00 0.00 0.00 71 1020.3
20260903185524 89 27 0.9 1.7 0.00 0.00 0.00 71 1020.4
20260903185026 89 0 0.0 0.0 0.00 0.00 0.00 71 1020.4
20260903184603 89 0 0.0 0.0 0.00 0.00 0.00 73 1020.6
20260903184030 88 0 0.0 0.0 0.00 0.00 0.00 73 1020.6
20260903183528 88 0 0.0 0.9 0.00 0.00 0.00 72 1020.7
20260903183046 88 0 0.0 1.7 0.00 0.00 0.00 72 1020.8
20260903182526 88 0 0.0 1.7 0.00 0.00 0.00 72 1021.0
20260903182024 87 0 0.0 0.9 0.00 0.00 0.00 75 1021.0
20260903181557 87 354 0.0 0.9 0.00 0.00 0.00 73 1021.0
20260903181025 87 0 0.0 0.9 0.00 0.00 0.00 75 1021.1
20260903180525 86 294 0.0 0.9 0.00 0.00 0.00 75 1021.1
20260903180105 86 0 0.0 0.9 0.00 0.00 0.00 76 1021.1
20260903175528 85 131 0.0 0.9 0.00 0.00 0.00 77 1021.1
20260903175024 85 0 0.0 0.9 0.00 0.00 0.00 78 1021.1
20260903174606 85 350 0.0 0.9 0.00 0.00 0.00 77 1021.1
20260903174026 84 0 0.0 1.7 0.00 0.00 0.00 78 1021.2
20260903173524 84 0 0.0 1.7 0.00 0.00 0.00 80 1021.3
20260903173048 84 325 0.0 1.7 0.00 0.00 0.00 81 1021.3
20260903172527 83 0 0.0 1.7 0.00 0.00 0.00 80 1021.3
20260903172026 83 314 0.0 1.7 0.00 0.00 0.00 80 1021.4
20260903171602 83 206 0.0 0.9 0.00 0.00 0.00 81 1021.3
20260903171025 83 0 0.0 0.0 0.00 0.00 0.00 81 1021.4
20260903170525 82 0 0.0 0.0 0.00 0.00 0.00 81 1021.4
20260903170108 82 0 0.0 0.0 0.00 0.00 0.00 81 1021.3
20260903165525 82 0 0.0 0.0 0.00 0.00 0.00 81 1021.4
20260903165024 82 0 0.0 0.0 0.00 0.00 0.00 82 1021.5
20260903164557 82 0 0.0 0.0 0.00 0.00 0.00 83 1021.5
20260903164025 82 0 0.0 0.0 0.00 0.00 0.00 83 1021.6
20260903163527 81 0 0.0 0.0 0.00 0.00 0.00 84 1021.6
20260903163103 81 0 0.0 0.0 0.00 0.00 0.00 83 1021.7
20260903162524 81 0 0.0 0.0 0.00 0.00 0.00 84 1021.8
20260903162027 80 0 0.0 0.0 0.00 0.00 0.00 85 1021.8
20260903161556 80 0 0.0 0.0 0.00 0.00 0.00 85 1022.0
20260903161031 80 0 0.0 0.0 0.00 0.00 0.00 85 1022.0
20260903160526 80 0 0.0 0.9 0.00 0.00 0.00 85 1022.2
20260903160049 80 0 0.0 0.9 0.00 0.00 0.00 85 1022.2
20260903155526 80 0 0.0 0.9 0.00 0.00 0.00 85 1022.3
20260903155029 80 0 0.0 1.7 0.00 0.00 0.00 85 1022.2
20260903154559 80 0 0.0 1.7 0.00 0.00 0.00 85 1022.3
20260903154027 80 0 0.0 0.9 0.00 0.00 0.00 86 1022.4
20260903153528 79 0 0.0 0.9 0.00 0.00 0.00 86 1022.4
20260903153059 79 0 0.0 0.9 0.00 0.00 0.00 87 1022.4
20260903152529 79 0 0.0 0.9 0.00 0.00 0.00 87 1022.5
20260903152025 79 0 0.0 0.9 0.00 0.00 0.00 88 1022.7
20260903151600 78 137 0.0 0.9 0.00 0.00 0.00 88 1022.7
20260903151025 78 0 0.0 1.7 0.00 0.00 0.00 88 1022.7
20260903150526 78 0 0.0 1.7 0.00 0.00 0.00 88 1022.8
20260903150113 78 287 0.0 1.7 0.00 0.00 0.00 88 1022.7
20260903145530 78 0 0.0 1.7 0.00 0.00 0.00 89 1022.8
20260903145028 77 223 0.0 1.7 0.00 0.00 0.00 89 1022.8
20260903144553 77 253 0.9 1.7 0.00 0.00 0.00 89 1022.7
20260903144027 77 0 0.0 0.9 0.00 0.00 0.00 90 1022.8
20260903143525 77 0 0.0 2.6 0.00 0.00 0.00 90 1022.8
20260903143050 77 308 0.0 2.6 0.00 0.00 0.00 90 1022.5
20260903142526 77 0 0.0 0.0 0.00 0.00 0.00 91 1022.3
20260903142030 77 0 0.0 0.0 0.00 0.00 0.00 91 1022.3
20260903141548 76 0 0.0 0.0 0.00 0.00 0.00 90 1022.2
20260903141026 76 0 0.0 0.0 0.00 0.00 0.00 91 1022.3
20260903140527 77 0 0.0 0.0 0.00 0.00 0.00 91 1021.8
20260903140047 76 0 0.0 0.0 0.00 0.00 0.00 92 1021.6
20260903135526 76 0 0.0 0.0 0.00 0.00 0.00 92 1021.5
20260903135025 76 0 0.0 0.0 0.00 0.00 0.00 92 1021.8
20260903134559 76 0 0.0 0.0 0.00 0.00 0.00 92 1021.6
20260903134032 75 0 0.0 0.0 0.00 0.00 0.00 93 1021.7
20260903133526 75 0 0.0 0.0 0.00 0.00 0.00 93 1021.7
20260903133056 75 0 0.0 0.0 0.00 0.00 0.00 93 1021.8
20260903132527 75 0 0.0 0.9 0.00 0.00 0.00 93 1021.8
20260903132027 74 0 0.0 0.9 0.00 0.00 0.00 93 1021.7
20260903131603 74 0 0.0 0.0 0.00 0.00 0.00 94 1021.9
20260903131028 74 0 0.0 0.0 0.00 0.00 0.00 94 1021.8
20260903130525 74 0 0.0 0.0 0.00 0.00 0.00 94 1021.8
20260903130115 73 0 0.0 0.0 0.00 0.00 0.00 95 1021.8
20260903125526 73 0 0.0 0.0 0.00 0.00 0.00 95 1021.9
20260903125026 73 0 0.0 0.0 0.00 0.00 0.00 95 1021.8
20260903124605 73 0 0.0 0.0 0.00 0.00 0.00 95 1022.0
20260903124024 73 0 0.0 0.0 0.00 0.00 0.00 95 1021.8
20260903123525 73 0 0.0 0.0 0.00 0.00 0.00 95 1021.9
20260903123048 73 0 0.0 0.0 0.00 0.00 0.00 95 1021.9
20260903122529 73 0 0.0 0.0 0.00 0.00 0.00 95 1021.9
20260903122026 73 0 0.0 0.0 0.00 0.00 0.00 95 1021.9
20260903121549 72 0 0.0 0.0 0.00 0.00 0.00 95 1021.9
20260903121026 72 0 0.0 0.0 0.00 0.00 0.00 95 1021.8
20260903120528 72 0 0.0 0.0 0.00 0.00 0.00 95 1021.9
20260903120059 72 0 0.0 0.0 0.00 0.00 0.00 95 1022.0
20260903115531 72 0 0.0 0.0 0.00 0.00 0.00 95 1021.9
20260903115028 72 0 0.0 0.0 0.00 0.00 0.00 95 1021.9
20260903114600 72 0 0.0 0.0 0.00 0.00 0.00 95 1022.0
20260903114025 72 0 0.0 0.0 0.00 0.00 0.00 95 1022.0
20260903113527 72 0 0.0 0.0 0.00 0.00 0.00 95 1022.0
20260903113047 72 0 0.0 0.0 0.00 0.00 0.00 95 1021.9
20260903112528 72 0 0.0 0.0 0.00 0.00 0.00 95 1021.9
20260903112026 72 0 0.0 0.0 0.00 0.00 0.00 95 1021.9
20260903111625 72 0 0.0 0.0 0.00 0.00 0.00 95 1021.8
20260903111028 72 0 0.0 0.0 0.00 0.00 0.00 95 1021.9
20260903110527 72 0 0.0 0.0 0.00 0.00 0.00 94 1021.8
20260903110109 72 0 0.0 0.0 0.00 0.00 0.00 94 1021.7
20260903105531 72 0 0.0 0.0 0.00 0.00 0.00 94 1021.7
20260903105026 72 0 0.0 0.0 0.00 0.00 0.00 94 1021.7
20260903104632 72 0 0.0 0.0 0.00 0.00 0.00 94 1021.7
20260903104028 72 0 0.0 0.0 0.00 0.00 0.00 94 1021.7
20260903103525 72 0 0.0 0.0 0.00 0.00 0.00 94 1021.5
20260903103047 72 0 0.0 0.0 0.00 0.00 0.00 94 1021.4
20260903102528 72 0 0.0 0.0 0.00 0.00 0.00 94 1021.2
20260903102029 72 0 0.0 0.0 0.00 0.00 0.00 95 1021.1
20260903101548 72 0 0.0 0.0 0.00 0.00 0.00 95 1020.9
20260903101025 72 0 0.0 0.0 0.00 0.00 0.00 95 1020.9
20260903100529 72 0 0.0 0.0 0.00 0.00 0.00 95 1020.9
20260903100058 72 0 0.0 0.0 0.00 0.00 0.00 95 1020.8
20260903095525 72 0 0.0 0.0 0.00 0.00 0.00 95 1020.8
20260903095028 72 0 0.0 0.0 0.00 0.00 0.00 95 1020.8
20260903094606 72 0 0.0 0.0 0.00 0.00 0.00 94 1020.8
20260903094028 72 0 0.0 0.0 0.00 0.00 0.00 94 1020.8
20260903093532 72 0 0.0 0.0 0.00 0.00 0.00 94 1020.9
20260903093049 72 0 0.0 0.0 0.00 0.00 0.00 94 1021.0
20260903092528 72 0 0.0 0.0 0.00 0.00 0.00 94 1020.9
20260903092024 72 0 0.0 0.0 0.00 0.00 0.00 94 1020.8
20260903091545 72 0 0.0 0.0 0.00 0.00 0.00 94 1020.9
20260903091024 72 0 0.0 0.0 0.00 0.00 0.00 94 1020.9
20260903090528 72 0 0.0 0.0 0.00 0.00 0.00 94 1021.0
20260903090054 72 0 0.0 0.0 0.00 0.00 0.00 94 1021.1
20260903085527 72 0 0.0 0.0 0.00 0.00 0.00 94 1021.1
20260903085026 72 0 0.0 0.0 0.00 0.00 0.00 94 1021.1
20260903084550 72 0 0.0 0.0 0.00 0.00 0.00 95 1021.1
20260903084026 72 0 0.0 0.0 0.00 0.00 0.00 95 1021.0
20260903083526 72 0 0.0 0.0 0.00 0.00 0.00 95 1021.0
20260903083047 72 0 0.0 0.0 0.00 0.00 0.00 95 1021.0
20260903082525 72 0 0.0 0.0 0.00 0.00 0.00 95 1021.0
20260903082027 72 0 0.0 0.0 0.00 0.00 0.00 95 1021.1
20260903081600 72 0 0.0 0.0 0.00 0.00 0.00 95 1021.0
20260903081032 72 0 0.0 0.0 0.00 0.00 0.00 95 1021.1
20260903080528 72 0 0.0 0.0 0.00 0.00 0.00 95 1021.1
20260903080057 72 0 0.0 0.0 0.00 0.00 0.00 95 1021.1
20260903075527 72 0 0.0 0.0 0.00 0.00 0.00 95 1021.2
20260903075026 72 0 0.0 0.0 0.00 0.00 0.00 95 1021.1
20260903074548 72 0 0.0 0.0 0.00 0.00 0.00 95 1021.1
20260903074027 72 0 0.0 0.0 0.00 0.00 0.00 95 1021.1
20260903073528 72 0 0.0 0.0 0.00 0.00 0.00 95 1021.1
20260903073048 72 0 0.0 0.0 0.00 0.00 0.00 95 1021.0
20260903072525 72 0 0.0 0.0 0.00 0.00 0.00 95 1021.0
20260903072024 72 0 0.0 0.0 0.00 0.00 0.00 95 1021.1
20260903071547 72 0 0.0 0.0 0.00 0.00 0.00 95 1021.1
20260903071025 72 0 0.0 0.0 0.00 0.00 0.00 95 1021.2
20260903070528 72 0 0.0 0.0 0.00 0.00 0.00 95 1021.1
20260903070055 73 0 0.0 0.0 0.00 0.00 0.00 95 1021.1
20260903065526 73 0 0.0 0.0 0.00 0.00 0.00 95 1021.1
20260903065026 73 0 0.0 0.0 0.00 0.00 0.00 95 1021.1
20260903064546 73 0 0.0 0.0 0.00 0.00 0.00 95 1021.0
20260903064026 73 0 0.0 0.0 0.00 0.00 0.00 94 1021.0
20260903063525 73 0 0.0 0.0 0.00 0.00 0.00 94 1021.2
20260903063046 73 0 0.0 0.0 0.00 0.00 0.00 94 1021.1
20260903062530 73 0 0.0 0.0 0.00 0.00 0.00 95 1021.1
20260903062029 73 0 0.0 0.0 0.00 0.00 0.00 94 1021.0
20260903061559 73 0 0.0 0.0 0.00 0.00 0.00 94 1020.9
20260903061029 73 0 0.0 0.0 0.00 0.00 0.00 94 1020.9
20260903060526 73 0 0.0 0.0 0.00 0.00 0.00 94 1020.9
20260903060052 73 0 0.0 0.0 0.00 0.00 0.00 93 1021.0
20260903055530 73 0 0.0 0.0 0.00 0.00 0.00 93 1020.9
20260903055023 73 0 0.0 0.0 0.00 0.00 0.00 93 1021.0
20260903054548 74 0 0.0 0.0 0.00 0.00 0.00 93 1020.9
20260903054028 74 0 0.0 0.0 0.00 0.00 0.00 92 1020.9
20260903053525 74 0 0.0 0.0 0.00 0.00 0.00 92 1020.9
20260903053103 74 0 0.0 0.0 0.00 0.00 0.00 91 1020.8
20260903052527 75 0 0.0 0.0 0.00 0.00 0.00 91 1021.1
20260903052028 75 0 0.0 0.0 0.00 0.00 0.00 91 1021.0
20260903051555 75 0 0.0 0.0 0.00 0.00 0.00 90 1020.8
20260903051025 76 0 0.0 0.0 0.00 0.00 0.00 89 1020.9
20260903050526 76 0 0.0 0.0 0.00 0.00 0.00 89 1020.9
20260903050053 76 0 0.0 0.0 0.00 0.00 0.00 88 1020.8
20260903045526 76 0 0.0 0.0 0.00 0.00 0.00 89 1020.6
20260903045026 76 0 0.0 0.9 0.00 0.00 0.00 89 1020.5
20260903044545 76 0 0.0 0.9 0.00 0.00 0.00 90 1020.5
20260903044028 76 0 0.0 0.9 0.00 0.00 0.00 90 1020.5
20260903043527 75 0 0.0 0.9 0.00 0.00 0.00 90 1020.6
20260903043059 75 103 0.0 0.9 0.00 0.00 0.00 90 1020.6
20260903042524 75 103 0.0 0.0 0.00 0.00 0.00 91 1020.6
20260903042025 75 0 0.0 0.0 0.00 0.00 0.00 91 1020.7
20260903041554 76 0 0.0 0.0 0.00 0.00 0.00 91 1020.7
20260903041025 76 0 0.0 0.0 0.00 0.00 0.00 90 1020.6
20260903040526 76 0 0.0 0.0 0.00 0.00 0.00 90 1020.7
20260903040109 76 0 0.0 0.0 0.00 0.00 0.00 90 1020.7
20260903035529 76 0 0.0 0.0 0.00 0.00 0.00 90 1020.7
20260903035027 76 0 0.0 0.0 0.00 0.00 0.00 90 1020.8
20260903034557 76 0 0.0 0.0 0.00 0.00 0.00 90 1020.8
20260903034025 76 0 0.0 0.0 0.00 0.00 0.00 91 1020.8
20260903033524 75 0 0.0 0.0 0.00 0.00 0.00 91 1020.9
20260903033055 75 0 0.0 0.0 0.00 0.00 0.00 91 1021.0
20260903032524 75 0 0.0 0.0 0.00 0.00 0.00 92 1020.8
20260903032027 76 0 0.0 0.0 0.00 0.00 0.00 91 1020.9
20260903031550 76 0 0.0 0.0 0.00 0.00 0.00 90 1020.9
20260903031027 76 0 0.0 0.0 0.00 0.00 0.00 90 1021.1
20260903030525 77 0 0.0 0.0 0.00 0.00 0.00 89 1021.1
20260903030108 77 0 0.0 0.0 0.00 0.00 0.00 89 1020.9
20260903025529 77 0 0.0 0.0 0.00 0.00 0.00 89 1021.2
20260903025026 77 0 0.0 0.0 0.00 0.00 0.00 89 1021.1
20260903024558 77 0 0.0 0.0 0.00 0.00 0.00 88 1021.2
20260903024027 77 0 0.0 0.0 0.00 0.00 0.00 88 1021.2
20260903023525 77 0 0.0 0.0 0.00 0.00 0.00 88 1021.3
20260903023052 77 0 0.0 0.0 0.00 0.00 0.00 89 1021.2
20260903022528 77 0 0.0 0.0 0.00 0.00 0.00 89 1021.1
20260903022023 77 0 0.0 0.0 0.00 0.00 0.00 89 1021.1
20260903021547 77 0 0.0 0.0 0.00 0.00 0.00 89 1021.0
20260903021024 78 0 0.0 0.0 0.00 0.00 0.00 88 1021.1
20260903020526 78 0 0.0 0.0 0.00 0.00 0.00 88 1021.0
20260903020048 78 0 0.0 0.0 0.00 0.00 0.00 87 1020.9
20260903015526 78 0 0.0 0.0 0.00 0.00 0.00 87 1021.1
20260903015025 78 0 0.0 0.0 0.00 0.00 0.00 87 1021.2
20260903014558 79 0 0.0 0.0 0.00 0.00 0.00 87 1021.3
20260903014024 79 0 0.0 0.0 0.00 0.00 0.00 87 1021.3
20260903013526 79 0 0.0 0.0 0.00 0.00 0.00 86 1021.3
20260903013102 79 0 0.0 0.0 0.00 0.00 0.00 86 1021.3
20260903012526 79 0 0.0 0.0 0.00 0.00 0.00 86 1021.3
20260903012025 79 0 0.0 0.0 0.00 0.00 0.00 86 1021.3
20260903011605 80 0 0.0 0.0 0.00 0.00 0.00 86 1021.3
20260903011027 80 0 0.0 0.0 0.00 0.00 0.00 85 1021.3
20260903010527 80 0 0.0 0.0 0.00 0.00 0.00 85 1021.2
20260903010055 80 0 0.0 0.0 0.00 0.00 0.00 85 1021.3
20260903005526 80 0 0.0 0.0 0.00 0.00 0.00 85 1021.1
20260903005031 80 0 0.0 0.0 0.00 0.00 0.00 84 1020.9
20260903004546 80 0 0.0 0.0 0.00 0.00 0.00 84 1020.9
20260903004026 80 0 0.0 0.0 0.00 0.00 0.00 84 1020.8
20260903003525 81 0 0.0 0.0 0.00 0.00 0.00 84 1020.9
20260903003045 81 0 0.0 0.0 0.00 0.00 0.00 84 1020.9
20260903002526 81 0 0.0 0.0 0.00 0.00 0.00 83 1020.8
20260903002024 81 0 0.0 0.0 0.00 0.00 0.00 83 1020.8
20260903001551 81 0 0.0 0.0 0.00 0.00 0.00 83 1020.8
20260903001026 81 0 0.0 0.0 0.00 0.00 0.00 83 1020.7
20260903000526 81 0 0.0 0.0 0.00 0.00 0.00 83 1020.9
20260903000046 82 0 0.0 0.0 0.00 0.00 0.00 82 1021.0
20260902235527 82 0 0.0 0.0 0.00 0.00 0.00 82 1020.8
20260902235025 82 0 0.0 0.0 0.00 0.00 0.00 82 1020.8
20260902234546 82 0 0.0 0.0 0.00 0.00 0.00 82 1020.7
20260902234025 82 0 0.0 0.9 0.00 0.00 0.00 82 1020.8
20260902233525 83 0 0.0 0.9 0.00 0.00 0.00 81 1020.9
20260902233050 83 0 0.0 0.0 0.00 0.00 0.00 81 1020.8
20260902232529 83 0 0.0 0.0 0.00 0.00 0.00 81 1020.8
20260902232026 84 0 0.0 0.9 0.00 0.00 0.00 80 1020.7
20260902231606 84 0 0.0 0.9 0.00 0.00 0.00 79 1020.7
20260902231031 84 121 0.0 0.9 0.00 0.00 0.00 79 1020.5
20260902230525 85 0 0.0 0.9 0.00 0.00 0.00 78 1020.7
20260902230045 85 0 0.0 0.9 0.00 0.00 0.00 77 1020.5
20260902225526 85 0 0.0 0.9 0.00 0.00 0.00 76 1020.4
20260902225025 85 0 0.0 0.9 0.00 0.00 0.00 76 1020.6
20260902224604 85 0 0.0 1.7 0.00 0.00 0.00 77 1020.7
20260902224031 86 0 0.0 1.7 0.00 0.00 0.00 77 1020.6
20260902223525 86 0 0.0 1.7 0.00 0.00 0.00 76 1020.6
20260902223055 86 0 0.0 0.0 0.00 0.00 0.00 76 1020.6
20260902222528 86 0 0.0 0.9 0.00 0.00 0.00 75 1020.6
20260902222028 86 0 0.0 0.9 0.00 0.00 0.00 76 1020.6
20260902221604 86 0 0.0 0.9 0.00 0.00 0.00 75 1020.7
20260902221026 86 0 0.0 0.0 0.00 0.00 0.00 75 1020.7
20260902220526 86 0 0.0 0.9 0.00 0.00 0.00 75 1020.8
20260902220058 86 0 0.0 0.9 0.00 0.00 0.00 75 1020.7
20260902215524 86 0 0.0 0.9 0.00 0.00 0.00 75 1020.8
20260902215027 86 0 0.0 0.9 0.00 0.00 0.00 74 1020.7
20260902214547 87 0 0.0 1.7 0.00 0.00 0.00 73 1020.7
20260902214100 87 0 0.0 1.7 0.00 0.00 0.00 73 1020.8
20260902213526 87 0 0.0 1.7 0.00 0.00 0.00 71 1020.8
20260902213055 87 45 0.0 1.7 0.00 0.00 0.00 72 1020.6
20260902212528 87 0 0.0 1.7 0.00 0.00 0.00 73 1020.7